Regional Weather Roundup
Issued by NWS

Home | Current Version | Previous Version | Text Only | Print | Product List | Glossary On
Versions: 1 2 3 4 5 6 7 8 9 10 11 12 13 14 15 16 17 18 19 20 21 22 23 24 25 26 27 28 29 30 31 32 33 34 35 36 37 38 39 40 41 42 43 44 45 46 47 48 49 50
000
ASUS43 KFSD 310310
RWRSD

WEATHER ROUNDUP FOR SOUTH DAKOTA
NATIONAL WEATHER SERVICE SIOUX FALLS SD
1000 PM CDT SAT AUG 30 2014

NOTE: "FAIR" INDICATES FEW OR NO CLOUDS BELOW 12,000 FEET WITH NO
SIGNIFICANT WEATHER AND/OR OBSTRUCTIONS TO VISIBILITY.


SDZ001>005-009-010-012>017-310400-
NORTHWEST AND NORTH CENTRAL SOUTH DAKOTA

CITY           SKY/WX    TMP DP  RH WIND       PRES   REMARKS
FAITH            N/A     65  57  75 SE23G33   29.61F
MOBRIDGE       PTCLDY    66  59  78 SE17G23   29.66R
$$

SDZ012>016-024>037-041>051-057-063-072>074-310400-
SOUTHWEST AND SOUTH CENTRAL SOUTH DAKOTA

CITY           SKY/WX    TMP DP  RH WIND       PRES   REMARKS
RAPID CTY ARPT MOCLDY    72  54  53 N32G44    29.73R
PIERRE         PTCLDY    69  62  78 SE21      29.66S
CUSTER         MOCLDY    68  40  35 CALM      29.85R
ELLSWORTH AFB  MOCLDY    68  57  67 N26G43    29.76R
PHILIP         CLOUDY    79  59  50 S16       29.64R
PINE RIDGE     LGT RAIN  64  60  87 SE9       29.77F
WINNER         FAIR      73  64  73 SE15      29.72S
$$

SDZ004>011-016>023-039-040-310400-
NORTHEAST SOUTH DAKOTA

CITY           SKY/WX    TMP DP  RH WIND       PRES   REMARKS
ABERDEEN       CLEAR     60  59  96 SE10      29.74F
WATERTOWN      CLEAR     60  57  89 S7        29.82F
SISSETON         N/A     59  59 100 S5        29.80F
$$

SDZ017-020-022-023-036>040-048>070-310400-
SOUTHEAST SOUTH DAKOTA

CITY           SKY/WX    TMP DP  RH WIND       PRES   REMARKS
SIOUX FALLS    CLEAR     65  61  87 S7        29.85R
HURON          CLEAR     65  59  81 SE12G18   29.76F
CHAMBERLAIN    CLEAR     65  62  89 SE15      29.74S
MITCHELL       CLEAR     64  61  90 SE9       29.80F
YANKTON        CLEAR     64  63  94 E6        29.82S
$$

ABBREVIATIONS USED IN REMARKS
   TC - TEMPERATURE IN CELSIUS
  WCI - WIND CHILL INDEX
   HX - HEAT INDEX
  VSB - VISIBILITY



USA.gov is the U.S. government's official web portal to all federal, state and local government web resources and services.